User: anonymous   Login
Location: Champignolles
(47.0543°N, 4.5663°E)
Time: 15:35:41
(UTC+00:00)
Language:

Cosmos 2181 Rocket - Orbit

View from above orbital plane
View from above orbital plane
View from above satellite
View from above satellite

Ground track
Ground track

The orbit data is extracted from the following two-line orbital elements,

1 21903U 92012B   21058.81452462 -.00000065  00000-0 -83431-4 0  9993
2 21903  82.9331 262.4883 0041624 285.7246  84.5830 13.74518351452981
Epoch (UTC): 27 February 2021 19:32:54
Eccentricity: 0.0041624
inclination: 82.9331°
perigee height: 953 km
apogee height: 1014 km
right ascension of ascending node: 262.4883°
argument of perigee: 285.7246°
revolutions per day: 13.74518351
mean anomaly at epoch: 84.5830°
orbit number at epoch: 45298

The dashed part of the orbit path shows where the satellite is in the earth's shadow,  

DLR